This demonstration page uses our WeatherBlox Daily Observations layout. Learn more.

Left ArrowRight Arrow

39.92423, -83.80882

Hourly Observations for July 27, 2019

Temp ( °F °C ) Dew Point ( °F °C ) Humidity (%) Winds ( mph kmh ) Pressure ( in mb ) Visibility ( mi km ) Precip ( " mm )
12:56 am 00:56 Clear 71 21.7 62 16.7 73 73 S 6 9 30.23 1024 10 16.0934 N/A
1:56 am 01:56 Clear 69 20.6 62 16.7 78 78 S 5 7 30.23 1024 10 16.0934 N/A
2:56 am 02:56 Clear 65 18.3 61 16.1 87 87 N N/A 30.23 1024 10 16.0934 N/A
3:56 am 03:56 Clear 62 16.7 60 15.6 93 93 SSE 3 6 30.23 1024 10 16.0934 N/A
4:56 am 04:56 Partly Cloudy 63 17.2 61 16.1 93 93 N N/A 30.23 1024 10 16.0934 N/A
5:56 am 05:56 Clear 60 15.6 60 15.6 100 100 SSE 3 6 30.24 1024 10 16.0934 N/A
6:56 am 06:56 Sunny 62 16.7 61 16.1 96 96 SSE 3 6 30.24 1024 10 16.0934 N/A
7:56 am 07:56 Sunny 67 19.4 64 17.8 91 91 SSW 6 9 30.25 1025 10 16.0934 N/A
8:56 am 08:56 Sunny 71 21.7 65 18.3 81 81 SW 7 11 30.26 1025 10 16.0934 N/A
9:56 am 09:56 Sunny 75 23.9 65 18.3 71 71 WSW 7 11 30.26 1025 10 16.0934 N/A
10:56 am 10:56 Sunny 80 26.7 66 18.9 62 62 W 12 19 30.26 1025 10 16.0934 N/A
11:56 am 11:56 Partly Cloudy 82 27.8 64 17.8 55 55 W 14 22 30.24 1024 10 16.0934 N/A
12:56 pm 12:56 Partly Cloudy 82 27.8 64 17.8 55 55 W 14 22 30.24 1024 10 16.0934 N/A
1:56 pm 13:56 Partly Cloudy 84 28.9 65 18.3 53 53 SW 14 22 30.21 1023 10 16.0934 N/A
2:56 pm 14:56 Partly Cloudy 83 28.3 64 17.8 53 53 SW 9 15 30.2 1023 10 16.0934 N/A
3:56 pm 15:56 Mostly Sunny 85 29.4 66 18.9 53 53 SSW 10 17 30.19 1022 10 16.0934 N/A
4:56 pm 16:56 Partly Cloudy 85 29.4 65 18.3 51 51 SSW 8 13 30.17 1022 10 16.0934 N/A
5:56 pm 17:56 Partly Cloudy 85 29.4 65 18.3 51 51 WSW 12 19 30.16 1022 10 16.0934 N/A
6:56 pm 18:56 Mostly Cloudy 83 28.3 65 18.3 55 55 WSW 8 13 30.16 1021 10 16.0934 N/A
7:56 pm 19:56 Mostly Cloudy 82 27.8 66 18.9 58 58 WSW 7 11 30.16 1021 10 16.0934 N/A
8:56 pm 20:56 Clear 77 25 67 19.4 71 71 WSW 6 9 30.17 1022 10 16.0934 N/A
9:56 pm 21:56 Clear 74 23.3 66 18.9 76 76 SSW 3 6 30.17 1022 10 16.0934 N/A
10:56 pm 22:56 Clear 72 22.2 66 18.9 82 82 SSW 5 7 30.17 1022 10 16.0934 N/A
11:56 pm 23:56 Clear 71 21.7 65 18.3 81 81 SW 5 7 30.16 1022 10 16.0934 N/A

Powered by AerisWeather